Location: Montreal
(45.5000°N, 73.5833°W)
Time: 03:20:57
(UTC-04:00)

OTV 5 (USA 277) - Pass Details

Date: 08 October 2017
Orbit: 404 x 417 km, 43.0° (Epoch: 07 September)

Event Time Altitude Azimuth Distance (km) Brightness Sun altitude
Rises 19:49:24 0° 208° (SSW) 2,343 ? -16.3°
Reaches altitude 10° 19:52:17 10° 181° (S) 1,484 ? -16.8°
Enters shadow 19:52:56 12° 171° (S) 1,366 ? -16.9°
